Weather History for Elmendorf AFB, AK

Change the Weather History Date:

Wednesday, March 20, 2013

  Actual Average Record
Temperature  
Mean Temperature 14 °F -  
Max Temperature 22 °F 34 °F 50 °F (1998)
Min Temperature 8 °F 19 °F -5 °F (1964)
Degree Days  
Heating Degree Days 50    
Moisture  
Dew Point -2 °F    
Average Humidity 46    
Maximum Humidity 61    
Minimum Humidity 30    
Precipitation  
Precipitation 0.00 in - - ()
Sea Level Pressure  
Sea Level Pressure 29.92 in    
Wind  
Wind Speed 7 mph (NNE)    
Max Wind Speed 12 mph    
Max Gust Speed -    
Visibility 10 miles    
Events      
Averages and records for this station are not official NWS values.
T = Trace of Precipitation, MM = Missing Value Source: NWS Daily Summary

Daily Weather History Graph

Daily Weather History Graph

Search for Another Location

Airport:

Trip Planner

Search our weather history database for the weather conditions in past years. The results will help you decide how hot, cold, wet, or windy it might be!

Date:

Astronomy

Mar. 20, 2013 Rise Set
Actual Time 7:59 AM AKDT 8:15 PM AKDT
Civil Twilight 7:15 AM AKDT 8:58 PM AKDT
Nautical Twilight 6:23 AM AKDT 9:51 PM AKDT
Astronomical Twilight 5:26 AM AKDT 10:49 PM AKDT
Moon 12:27 PM AKDT (3/20) 5:19 AM AKDT (3/20)
Length of Visible Light 13h 43m
Length of Day
12h 16m
First Quarter, 60% of the Moon is Illuminated
Mar 20
First Quarter
Mar 27
Full
Apr 2
Last Quarter
Apr 10
New
Apr 18
First Quarter

Hourly Weather History & Observations

Time (AKDT) Temp. Windchill Dew Point Humidity Pressure Visibility Wind Dir Wind Speed Gust Speed Precip Events Conditions
12:55 AM 17.6 °F 5.7 °F -2.0 °F 42% 29.88 in 10.0 mi NE 10.4 mph - N/A   Clear
1:55 AM 16.5 °F 5.1 °F -4.2 °F 40% 29.89 in 10.0 mi ENE 9.2 mph - N/A   Clear
2:55 AM 14.7 °F 2.9 °F -4.2 °F 43% 29.90 in 10.0 mi NE 9.2 mph - N/A   Clear
3:55 AM 13.6 °F 2.5 °F -4.2 °F 45% 29.90 in 10.0 mi NE 8.1 mph - N/A   Clear
4:55 AM 12.7 °F 0.4 °F -3.8 °F 48% 29.90 in 10.0 mi NE 9.2 mph - N/A   Clear
5:55 AM 11.3 °F 1.9 °F -1.5 °F 57% 29.90 in 10.0 mi ENE 5.8 mph - N/A   Clear
6:55 AM 8.8 °F -1.1 °F -2.9 °F 59% 29.91 in 10.0 mi ENE 5.8 mph - N/A   Clear
7:55 AM 10.2 °F -1.7 °F -2.9 °F 55% 29.91 in 10.0 mi NE 8.1 mph - N/A   Clear
8:55 AM 10.6 °F -2.2 °F -3.3 °F 54% 29.91 in 10.0 mi NE 9.2 mph - N/A   Clear
9:55 AM 9.9 °F - -1.3 °F 61% 29.92 in 10.0 mi Calm Calm - N/A   Clear
10:55 AM 15.6 °F 5.9 °F -3.5 °F 43% 29.92 in 10.0 mi NNE 6.9 mph - N/A   Clear
11:55 AM 18.1 °F - -4.5 °F 37% 29.93 in 10.0 mi Calm Calm - N/A   Clear
12:55 PM 20.5 °F 12.8 °F -3.6 °F 35% 29.93 in 10.0 mi NNW 5.8 mph - N/A   Clear
1:55 PM 21.9 °F 14.5 °F -5.3 °F 30% 29.93 in 10.0 mi NE 5.8 mph - N/A   Clear
2:55 PM 20.1 °F 11.3 °F -1.3 °F 39% 29.94 in 10.0 mi West 6.9 mph - N/A   Clear
3:55 PM 20.8 °F 9.0 °F 1.9 °F 44% 29.93 in 10.0 mi West 11.5 mph - N/A   Clear
4:55 PM 20.8 °F 10.4 °F 3.0 °F 46% 29.93 in 10.0 mi WNW 9.2 mph - N/A   Clear
5:55 PM 21.0 °F 12.4 °F 2.3 °F 44% 29.92 in 10.0 mi WNW 6.9 mph - N/A   Clear
6:55 PM 19.4 °F 14.3 °F 0.5 °F 44% 29.92 in 10.0 mi West 3.5 mph - N/A   Clear
7:55 PM 19.9 °F - 3.6 °F 49% 29.92 in 10.0 mi Calm Calm - N/A   Clear
8:55 PM 18.0 °F - 0.5 °F 47% 29.94 in 10.0 mi Calm Calm - N/A   Clear
9:55 PM 15.1 °F 9.4 °F -0.6 °F 50% 29.95 in 10.0 mi East 3.5 mph - N/A   Clear
10:55 PM 13.5 °F 5.8 °F -3.3 °F 47% 29.96 in 10.0 mi East 4.6 mph - N/A   Clear
11:55 PM 11.3 °F 5.1 °F -2.9 °F 53% 29.98 in 10.0 mi ESE 3.5 mph - N/A   Clear